Temp
26 27 29 29 29 30 19 24 16 23 26 31 34 34 34 35 38 39 39 41 41 40 41 42 42 44 45 47 49 52 53 54 54 55 56 55 55 55 55 55 55 55 57 57
15 30 28 27 31 30 31 31 29 29 28 34 33 36 36 36 37 37 38 39 40 40 40 40 39 41 43 45 45 49 49 50 52 53 53 52 52 52 52 52 51 52 52 52
16 24 21 17 30 31 31 32 31 25 31 34 34 36 36 37 37 37 38 39 38 38 38 39 39 40 40 42 44 45 45 46 47 48 48 47 48 48 48 48 49 49 50 50
16 17 16 30 33 34 33 34 34 33 33 36 36 37 38 38 35 37 38 39 39 38 38 39 39 39 40 41 41 42 42 42 43 44 46 47 46 45 45 45 46 47 47 47
15 12 25 26 30 31 30 32 33 33 34 35 36 34 36 39 38 36 36 38 38 38 39 38 38 38 39 39 39 40 40 41 42 42 43 43 43 43 43 41 40 43 45 45
17 17 20 28 32 35 34 28 36 34 34 34 34 28 32 36 39 39 39 40 39 39 39 38 37 38 38 37 38 38 39 40 41 42 42 42 42 42 41 41 41 41 43 43
15 15 25 32 35 36 23 32 35 35 35 34 32 35 37 39 38 38 38 38 38 37 37 37 37 38 37 37 36 37 39 40 41 40 41 40 40 39 39 39 40 39 40 41
18 15 22 35 33 31 38 33 36 35 36 35 36 36 36 38 38 39 39 37 38 38 38 37 38 37 36 36 36 38 39 39 39 40 41 40 39 38 38 38 37 37 38 39
28 30 37 35 38 39 37 38 37 36 38 38 37 36 37 37 37 38 38 37 38 37 37 37 37 36 36 36 36 37 38 38 38 39 40 40 39 38 37 38 38 40 40 40
31 33 34 38 40 37 39 38 40 39 39 37 37 37 36 36 36 35 36 36 37 37 36 36 36 36 35 35 36 36 36 36 37 38 40 40 40 39 38 38 39 40 40 39
29 34 36 38 38 40 39 39 38 39 39 38 37 36 36 35 35 35 35 36 36 36 36 36 36 36 35 36 35 35 35 36 36 37 38 38 40 40 38 38 40 40 40 40
39 45 43 45 40 39 38 37 39 38 36 37 37 36 36 35 35 35 34 34 35 36 36 36 36 36 36 36 36 34 34 34 34 35 34 35 35 36 42 43 43 43 43 42
47 41 42 41 39 38 38 38 37 38 38 36 35 36 36 35 35 37 34 34 35 36 36 36 36 36 37 38 37 36 35 35 35 36 34 34 35 36 35 39 42 42 42 42
45 37 39 38 42 39 38 38 40 36 36 36 36 35 36 36 37 37 36 37 36 36 36 36 36 38 41 40 39 39 39 39 38 37 36 33 33 34 35 34 33 35 39 40
42 41 47 40 38 37 35 34 34 33 34 33 34 35 35 35 35 35 36 36 36 37 39 39 39 39 40 39 38 37 37 37 37 34 32 33 30 30 31 33 32 33 34 36
41 41 38 38 41 36 34 33 34 35 34 34 34 34 35 35 34 34 34 34 34 35 37 36 34 35 35 34 33 35 36 36 36 30 29 28 30 31 32 31 32 32 32 33
35 34 32 31 35 38 35 38 38 38 36 35 35 35 34 33 33 33 32 33 34 36 37 36 37 35 33 35 36 35 33 32 33 29 27 27 28 27 27 31 31 31 32 34
43 46 41 39 40 38 37 37 36 36 36 37 36 35 34 34 34 36 37 36 36 35 33 31 31 32 31 32 32 31 33 32 30 28 28 27 27 27 27 27 29 30 31 33
40 41 41 38 39 39 40 38 38 37 37 37 35 35 35 35 35 37 36 34 33 25 29 30 34 34 31 31 32 30 30 31 29 27 27 29 26 25 25 26 26 27 28 29
36 36 36 36 36 37 37 37 38 36 36 36 36 32 32 32 34 34 32 28 28 28 30 30 31 30 29 30 33 28 27 27 26 25 26 25 24 24 24 27 27 26 26 28
35 35 34 34 33 34 35 35 35 35 36 36 35 34 32 31 33 31 26 25 28 30 30 32 29 28 28 30 30 29 28 27 28 27 25 23 26 26 25 24 24 25 25 26
33 33 33 33 31 31 32 32 34 35 35 35 33 32 31 30 30 26 28 27 29 35 30 28 27 29 29 34 24 23 22 21 20 20 20 21 23 26 26 24 22 23 23 22
32 32 32 31 31 30 30 31 32 33 34 34 33 31 31 31 26 25 25 29 28 31 28 27 29 34 35 24 21 19 19 19 20 20 20 20 27 27 26 24 23 23 22 21
31 31 31 31 30 30 28 29 30 32 32 32 33 32 30 26 25 26 29 32 32 32 27 28 30 33 32 20 17 15 15 16 16 18 20 28 27 27 26 25 24 23 22 23
28 26 25 26 28 29 28 27 27 27 29 29 29 29 29 28 28 26 25 26 33 27 25 29 30 29 23 21 19 18 16 14 12 15 18 19 20 22 23 25 25 23 23 21
24 26 28 29 30 29 28 29 29 26 27 27 27 27 27 27 27 25 24 26 25 26 23 22 22 22 21 20 20 19 18 16 17 16 18 16 15 16 19 21 22 21 21 23
23 30 24 27 27 28 29 29 28 26 28 28 26 26 26 25 26 24 25 22 23 22 20 19 17 19 17 18 17 16 15 14 16 16 15 12 13 14 16 17 19 22 22 22
MSLP
1022.87 1022.01 1021.36 1020.60 1020.06 1019.87 1020.39 1020.40 1020.27 1019.71 1019.08 1018.01 1017.46 1017.21 1017.43 1017.35 1016.97 1016.55 1016.17 1015.81 1015.52 1015.24 1014.77 1014.35 1013.57 1012.84 1012.18 1011.30 1010.58 1010.02 1009.60 1009.59 1009.59 1009.56 1009.74 1010.24 1010.65 1010.59 1010.53 1010.61 1010.88 1010.98 1011.27 1011.56
1023.23 1022.00 1021.25 1020.19 1019.27 1019.13 1019.09 1019.12 1019.05 1018.63 1018.20 1017.49 1017.40 1017.19 1017.08 1017.37 1017.34 1017.02 1016.59 1016.21 1016.11 1015.80 1015.52 1015.05 1014.55 1014.09 1013.42 1012.72 1011.96 1011.20 1011.14 1011.31 1010.91 1010.76 1010.81 1011.15 1011.30 1011.22 1011.25 1011.38 1011.69 1011.82 1011.71 1011.66
1023.42 1022.00 1020.91 1019.94 1017.68 1017.78 1017.76 1017.82 1017.95 1017.83 1017.26 1017.15 1017.53 1017.65 1017.39 1017.10 1017.02 1017.04 1016.93 1016.80 1016.48 1016.23 1016.01 1015.65 1015.42 1014.99 1014.39 1013.72 1013.17 1012.75 1012.85 1012.39 1012.15 1011.94 1012.00 1011.87 1011.59 1011.73 1012.06 1012.10 1012.33 1012.52 1012.42 1011.96
1024.09 1022.34 1020.51 1017.54 1016.72 1016.61 1016.80 1016.64 1016.70 1016.95 1016.80 1016.80 1016.91 1017.07 1017.40 1017.47 1017.36 1017.17 1017.00 1016.73 1016.79 1016.55 1016.47 1016.00 1015.81 1015.38 1014.78 1014.36 1014.08 1013.95 1013.52 1013.25 1013.02 1012.77 1012.85 1012.59 1012.65 1012.98 1012.99 1013.15 1013.07 1012.97 1012.72 1012.45
1024.44 1023.01 1019.56 1017.45 1016.62 1016.33 1016.19 1015.62 1015.49 1016.08 1016.55 1016.72 1016.82 1017.04 1016.65 1016.53 1016.71 1016.69 1016.81 1016.91 1017.03 1016.92 1016.66 1016.60 1016.47 1016.16 1015.79 1015.26 1015.08 1014.85 1014.69 1014.24 1013.85 1013.68 1013.42 1013.50 1013.74 1013.61 1013.53 1013.73 1013.72 1013.48 1013.13 1012.98
1024.20 1022.53 1019.62 1017.02 1016.22 1015.96 1016.02 1015.41 1014.78 1015.41 1016.08 1016.54 1016.99 1017.36 1016.60 1015.97 1016.26 1016.49 1016.56 1016.58 1016.62 1016.77 1016.96 1016.92 1016.83 1016.62 1016.42 1016.10 1015.70 1015.60 1015.33 1014.77 1014.50 1014.34 1014.25 1014.11 1014.13 1013.97 1014.01 1014.04 1013.88 1013.67 1013.57 1013.32
1023.40 1021.54 1018.54 1016.44 1016.07 1016.19 1016.17 1015.48 1014.69 1015.16 1015.62 1016.30 1016.74 1016.24 1015.94 1015.99 1016.15 1016.11 1016.24 1016.28 1016.54 1016.80 1016.74 1016.66 1016.37 1016.26 1016.28 1016.23 1016.23 1016.00 1015.60 1015.23 1014.94 1014.77 1014.66 1014.62 1014.58 1014.56 1014.36 1014.33 1014.11 1013.98 1014.06 1013.50
1022.06 1020.44 1017.74 1015.88 1016.14 1015.77 1014.33 1014.32 1014.54 1015.12 1015.35 1015.77 1015.66 1015.94 1016.10 1016.12 1016.15 1016.22 1016.16 1016.25 1016.14 1016.32 1016.57 1016.62 1016.69 1016.54 1016.63 1016.43 1016.33 1016.03 1015.70 1015.46 1015.36 1015.11 1014.99 1014.91 1014.84 1014.77 1014.69 1014.57 1014.36 1014.15 1014.11 1014.04
1019.61 1016.95 1015.14 1014.91 1014.05 1013.51 1013.68 1014.00 1014.20 1014.51 1014.74 1015.18 1015.54 1015.78 1015.89 1015.97 1016.09 1016.08 1016.05 1016.09 1016.30 1016.46 1016.65 1016.78 1016.85 1016.71 1016.80 1016.75 1016.52 1016.23 1015.92 1015.66 1015.38 1015.14 1014.90 1014.77 1014.84 1014.82 1014.68 1014.46 1014.35 1014.28 1014.21 1013.90
1017.90 1014.96 1014.34 1014.01 1013.51 1013.62 1013.48 1013.34 1013.34 1013.59 1013.94 1014.48 1014.95 1015.24 1015.61 1015.86 1016.03 1016.16 1016.13 1016.10 1016.21 1016.38 1016.47 1016.68 1016.66 1016.69 1016.81 1016.77 1016.45 1016.18 1016.09 1016.00 1015.60 1015.33 1015.16 1014.91 1014.78 1014.87 1014.88 1014.76 1014.49 1014.30 1014.22 1014.12
1016.11 1013.87 1013.30 1012.46 1012.46 1012.10 1012.39 1012.83 1013.00 1013.04 1013.31 1013.67 1014.19 1014.58 1014.93 1015.40 1015.76 1015.90 1015.93 1015.91 1015.91 1016.00 1016.02 1016.25 1016.31 1016.38 1016.50 1016.50 1016.55 1016.43 1016.11 1016.28 1015.97 1015.62 1015.55 1015.43 1015.20 1014.97 1014.82 1014.64 1014.51 1014.33 1014.14 1013.89
1012.58 1011.11 1011.51 1010.88 1010.62 1010.97 1011.70 1011.91 1012.03 1012.58 1012.95 1013.03 1013.46 1013.85 1014.34 1014.75 1014.97 1015.22 1015.40 1015.47 1015.53 1015.52 1015.46 1015.60 1015.90 1016.04 1016.16 1016.14 1016.01 1016.15 1016.00 1015.99 1015.98 1015.89 1015.62 1015.47 1015.23 1014.86 1014.74 1014.57 1014.36 1014.13 1013.91 1013.65
1009.95 1009.84 1010.07 1009.58 1009.84 1010.19 1010.76 1010.97 1011.19 1011.72 1012.00 1012.53 1012.82 1013.05 1013.64 1014.22 1014.47 1014.69 1014.91 1015.08 1015.16 1015.23 1015.22 1015.22 1015.31 1015.54 1015.66 1015.75 1015.79 1015.88 1016.09 1016.02 1015.86 1015.93 1015.80 1015.60 1015.42 1015.15 1014.85 1014.13 1014.01 1013.73 1013.56 1013.42
1009.31 1009.94 1010.02 1009.48 1009.29 1009.37 1009.86 1010.13 1010.66 1011.11 1011.46 1011.93 1012.39 1012.73 1012.94 1013.41 1013.81 1014.11 1014.43 1014.61 1014.74 1014.96 1015.10 1015.14 1015.16 1015.22 1015.13 1015.29 1015.51 1015.65 1015.68 1015.71 1015.73 1015.82 1015.76 1015.49 1015.53 1015.35 1015.02 1014.64 1014.12 1013.62 1013.41 1013.26
1007.92 1008.35 1007.83 1008.24 1008.69 1009.12 1009.69 1010.30 1010.79 1010.96 1011.12 1011.75 1012.06 1012.57 1012.90 1013.14 1013.37 1013.60 1013.93 1014.25 1014.51 1014.71 1014.83 1014.96 1015.05 1015.14 1015.05 1015.13 1015.30 1015.40 1015.39 1015.36 1015.47 1015.61 1015.58 1015.55 1015.51 1015.38 1015.22 1014.89 1014.55 1014.11 1013.57 1013.16
1006.71 1007.37 1007.77 1008.03 1007.95 1008.57 1009.04 1009.50 1010.10 1010.22 1010.59 1011.00 1011.62 1012.10 1012.33 1012.74 1013.06 1013.40 1013.69 1013.98 1014.29 1014.54 1014.70 1014.90 1015.09 1015.24 1015.30 1015.27 1015.32 1015.23 1015.19 1015.31 1015.36 1015.46 1015.65 1015.66 1015.62 1015.48 1015.28 1015.07 1014.71 1014.26 1013.79 1013.29
1006.93 1006.87 1007.14 1007.41 1007.38 1007.43 1007.60 1007.70 1008.12 1008.74 1009.35 1010.10 1010.59 1011.37 1012.10 1012.56 1012.96 1013.24 1013.54 1013.74 1014.08 1014.42 1014.62 1014.79 1014.90 1015.09 1015.23 1015.23 1015.21 1015.23 1015.38 1015.54 1015.52 1015.60 1015.66 1015.63 1015.55 1015.45 1015.28 1014.97 1014.60 1014.17 1013.75 1013.30
1005.46 1005.18 1005.28 1005.51 1005.93 1006.46 1006.76 1006.89 1007.20 1007.76 1008.24 1008.66 1009.79 1010.72 1011.73 1012.26 1012.39 1012.70 1013.06 1013.34 1013.77 1014.15 1014.46 1014.63 1014.71 1014.85 1015.00 1015.02 1015.09 1015.21 1015.36 1015.56 1015.63 1015.62 1015.58 1015.56 1015.47 1015.32 1015.12 1014.86 1014.52 1014.10 1013.58 1013.02
1004.35 1004.22 1004.16 1004.71 1005.08 1005.43 1005.54 1005.94 1006.38 1006.52 1007.29 1008.02 1009.15 1010.06 1010.81 1011.71 1012.21 1012.43 1012.74 1013.27 1013.68 1014.07 1014.19 1014.20 1014.24 1014.42 1014.68 1014.77 1014.87 1015.11 1015.26 1015.46 1015.54 1015.50 1015.45 1015.36 1015.24 1015.11 1014.88 1014.59 1014.25 1013.84 1013.28 1012.82
1004.04 1003.98 1003.88 1004.06 1004.49 1004.82 1005.09 1005.25 1005.83 1006.27 1006.81 1007.46 1008.31 1009.52 1010.43 1011.22 1011.97 1012.53 1013.10 1013.42 1013.68 1013.83 1013.86 1014.03 1014.21 1014.47 1014.63 1014.74 1014.79 1014.95 1015.10 1015.22 1015.27 1015.24 1015.22 1015.16 1014.96 1014.73 1014.50 1014.24 1013.91 1013.48 1013.06 1012.70
1004.10 1003.86 1003.81 1003.87 1004.05 1004.22 1004.53 1005.15 1005.69 1006.13 1006.49 1007.11 1007.62 1008.79 1009.80 1010.77 1011.43 1012.52 1013.34 1013.71 1013.54 1013.72 1013.89 1013.98 1014.22 1014.42 1014.51 1014.56 1014.61 1014.73 1014.85 1015.05 1015.08 1015.05 1014.94 1014.80 1014.54 1014.21 1013.98 1013.76 1013.51 1013.24 1012.87 1012.55
1004.07 1004.26 1003.90 1003.89 1004.02 1004.41 1004.70 1004.94 1005.51 1006.00 1006.58 1007.18 1007.81 1008.41 1009.65 1010.66 1011.50 1012.52 1012.99 1013.34 1013.41 1013.52 1013.90 1014.08 1014.18 1014.29 1014.34 1014.25 1014.33 1014.53 1014.78 1014.96 1014.88 1014.74 1014.55 1014.30 1013.97 1013.65 1013.54 1013.42 1013.14 1012.70 1012.34 1012.06
1003.80 1003.91 1004.06 1004.16 1004.21 1004.46 1005.02 1005.28 1005.55 1005.94 1006.53 1007.08 1007.81 1008.48 1009.17 1010.06 1011.33 1012.31 1012.83 1013.01 1013.38 1013.49 1013.82 1014.08 1014.20 1014.18 1014.16 1014.40 1014.49 1014.62 1014.73 1014.79 1014.64 1014.45 1014.20 1013.90 1013.48 1013.17 1012.93 1012.70 1012.52 1012.18 1011.85 1011.56
1003.55 1003.56 1003.82 1004.00 1004.15 1004.44 1005.13 1005.49 1005.88 1006.27 1006.60 1007.32 1008.10 1008.76 1009.30 1010.20 1011.25 1011.86 1012.20 1012.47 1013.01 1013.41 1013.84 1014.03 1014.06 1014.10 1014.20 1014.55 1014.62 1014.73 1014.76 1014.69 1014.58 1014.30 1013.88 1013.22 1012.85 1012.46 1012.30 1011.99 1011.83 1011.51 1011.23 1010.90
1003.64 1003.52 1003.75 1004.17 1004.47 1004.64 1004.78 1005.27 1005.73 1006.33 1006.91 1007.52 1008.46 1009.11 1009.76 1010.17 1010.41 1011.40 1012.15 1012.66 1012.89 1013.51 1013.94 1014.10 1014.21 1014.32 1014.57 1014.68 1014.68 1014.66 1014.64 1014.60 1014.42 1014.02 1013.82 1013.46 1012.98 1012.45 1011.99 1011.62 1011.39 1011.08 1010.82 1010.46
1004.08 1004.08 1004.01 1003.99 1004.03 1004.30 1004.73 1005.26 1005.69 1006.41 1006.99 1007.99 1008.85 1009.39 1010.04 1010.64 1010.88 1011.42 1011.94 1012.58 1013.18 1013.57 1014.04 1014.37 1014.51 1014.65 1014.79 1014.80 1014.75 1014.76 1014.67 1014.66 1014.38 1014.09 1013.75 1013.45 1013.04 1012.59 1012.06 1011.62 1011.15 1010.72 1010.44 1010.12
1003.86 1003.88 1004.00 1004.26 1004.28 1004.25 1004.54 1005.05 1005.52 1006.44 1007.07 1007.75 1008.78 1009.76 1010.35 1010.87 1011.44 1011.95 1012.37 1012.87 1013.34 1013.78 1014.22 1014.62 1014.82 1014.85 1014.88 1014.87 1014.94 1014.87 1014.87 1014.72 1014.45 1014.03 1013.60 1013.29 1013.02 1012.58 1012.09 1011.59 1011.03 1010.39 1010.03 1009.73
Wind_Speed
6 6 3 5 8 4 2 4 5 3 4 5 6 7 4 5 7 8 9 11 11 11 11 12 13 13 13 13 13 12 12 11 9 9 9 7 5 4 5 4 2 3 2 4
4 4 4 5 7 6 4 3 5 4 6 6 2 5 6 5 5 6 8 9 8 8 10 11 11 11 11 12 13 12 13 12 10 10 9 7 6 6 6 5 5 3 3 2
6 2 3 6 6 6 3 4 4 3 6 4 4 4 5 6 6 6 5 6 8 8 7 7 9 7 9 10 9 12 11 11 11 9 8 6 6 7 6 6 4 5 4 2
5 5 4 6 2 4 6 7 8 4 4 5 3 3 6 6 3 6 5 5 5 5 6 7 6 7 6 6 7 7 8 9 8 8 7 7 7 6 6 4 5 4 5 6
2 2 7 1 3 5 4 6 7 9 6 5 2 2 6 6 4 2 3 3 2 2 3 4 5 6 6 7 6 7 8 8 8 7 7 6 5 4 3 3 3 3 3 4
1 2 2 2 2 1 2 5 6 7 8 8 5 2 5 4 4 4 3 2 4 4 2 4 4 4 4 5 6 8 7 6 6 6 6 6 5 6 4 3 3 3 3 2
2 3 9 6 4 3 2 7 4 6 7 8 6 6 4 5 4 3 2 3 1 3 3 4 5 5 7 6 8 6 6 6 5 5 5 5 4 3 3 3 4 5 6 6
2 1 5 7 3 6 6 2 4 5 6 8 6 5 6 7 7 6 5 1 0 2 3 3 4 5 5 7 6 5 4 5 5 5 4 4 5 5 4 4 4 5 5 5
9 8 3 9 8 7 4 4 5 5 7 8 7 7 7 7 7 6 5 3 2 3 2 1 0 2 4 5 5 6 6 6 6 6 5 4 4 5 4 4 3 4 3 4
2 4 10 12 10 7 8 9 7 7 7 8 8 8 8 6 6 5 4 4 3 4 3 4 3 1 1 4 5 4 5 5 5 6 6 5 3 2 3 3 3 3 3 4
8 12 9 13 13 12 11 10 8 7 8 10 8 6 7 6 6 6 5 4 4 6 4 4 4 3 2 2 2 2 2 3 5 4 5 5 4 4 4 3 3 4 4 4
11 13 7 10 6 6 10 12 14 11 7 7 9 9 7 6 6 4 5 3 4 5 4 4 4 4 3 2 2 3 3 3 3 4 3 3 3 5 3 4 9 10 11 8
17 6 11 7 5 5 7 10 10 13 11 9 7 8 7 6 6 7 6 5 5 5 4 4 4 5 5 3 1 1 3 3 3 3 3 3 3 3 5 7 8 7 8 12
18 3 9 9 10 9 9 6 7 7 8 7 8 6 7 7 6 7 7 7 6 4 3 4 3 4 4 3 2 2 1 2 2 2 3 3 3 4 4 5 8 8 11 14
20 16 21 2 5 7 5 5 7 9 9 8 7 8 7 8 7 7 6 6 6 5 4 3 2 2 0 2 2 1 1 1 1 2 3 4 3 4 4 6 7 7 9 10
11 12 13 14 15 9 9 8 9 12 10 9 10 9 9 7 6 6 5 5 5 5 4 1 1 2 2 0 1 1 1 5 4 2 3 3 3 3 4 6 6 7 7 7
6 7 6 7 14 15 17 15 14 13 12 12 13 9 8 7 6 6 6 5 5 4 3 3 4 2 3 2 2 1 1 3 6 2 3 3 3 3 4 5 6 7 8 9
15 16 9 10 9 12 12 13 13 11 14 15 11 11 10 10 10 8 7 6 4 2 3 5 4 4 4 3 2 2 2 4 4 3 3 3 4 4 4 4 6 6 7 8
15 18 13 10 10 9 10 11 14 14 11 13 13 14 12 9 7 7 5 5 5 4 5 5 4 4 3 4 4 3 3 4 5 3 3 6 4 4 4 5 6 7 6 7
7 7 6 7 8 9 8 7 10 11 11 13 12 11 11 8 7 6 4 6 6 4 5 4 3 3 3 3 4 2 3 4 4 4 3 4 4 4 4 8 8 7 6 7
9 7 8 7 7 7 7 6 9 10 11 13 15 13 11 8 7 6 4 4 4 6 5 4 4 3 2 3 3 3 3 3 4 4 4 4 5 5 5 6 6 6 6 6
4 5 6 5 5 5 5 7 7 8 11 11 9 10 9 7 7 5 4 4 2 6 3 2 2 3 3 4 1 1 2 2 2 3 4 4 4 5 6 6 7 6 6 6
4 4 4 5 5 5 5 5 6 9 11 11 11 10 9 6 6 5 4 5 4 5 3 2 3 4 5 2 1 1 2 3 3 4 4 4 6 6 6 6 6 6 6 6
3 4 4 3 5 6 7 6 6 6 7 8 8 8 8 6 4 3 3 9 8 5 4 2 1 3 4 2 2 2 2 2 3 4 5 12 6 6 6 6 7 6 6 9
4 3 4 5 6 5 6 7 7 7 8 8 7 6 6 3 4 6 5 4 8 5 3 3 4 5 3 2 2 2 2 2 3 3 4 6 6 7 6 6 7 6 6 5
3 4 4 6 4 5 5 7 7 5 7 7 4 5 4 3 5 7 5 7 5 6 3 2 2 3 3 3 3 3 3 4 5 5 7 6 6 7 8 9 8 7 6 6
2 3 2 2 2 5 6 7 9 7 7 8 7 4 5 5 6 6 8 5 4 4 3 3 2 3 2 3 3 4 4 4 7 6 5 5 6 6 7 8 8 8 6 5
Wind_Direction
243 239 225 253 284 317 89 211 138 240 220 254 280 301 323 319 332 352 0 11 9 7 9 6 8 8 5 11 15 21 36 36 37 46 59 63 57 50 53 63 77 97 255 230
292 218 240 273 267 264 245 213 258 244 268 205 212 301 320 327 345 353 346 353 356 7 7 10 7 3 5 11 12 26 33 30 27 34 48 46 39 33 40 37 29 5 150 137
273 359 349 348 220 195 206 207 193 220 231 178 200 215 275 310 340 339 344 349 349 352 355 7 2 354 14 5 7 27 25 27 20 21 27 27 35 30 34 30 10 353 346 5
277 2 22 241 166 198 212 235 211 227 219 219 232 198 190 205 258 316 331 347 343 359 352 2 351 358 1 17 26 29 24 16 14 17 20 21 22 19 23 13 9 352 338 349
97 229 289 247 220 186 194 281 204 204 200 210 179 6 286 207 208 240 294 283 242 311 345 356 12 350 4 23 24 22 16 11 6 6 9 13 24 26 24 25 339 329 329 323
85 97 242 236 238 215 111 297 190 181 187 176 149 168 258 209 202 241 255 297 331 342 343 25 356 3 37 30 27 20 359 355 356 1 9 11 358 357 357 357 342 334 311 300
218 253 284 239 188 164 321 239 171 187 182 166 188 203 194 173 211 206 240 292 28 3 18 6 356 13 28 19 22 343 340 352 12 17 22 16 10 15 8 356 353 2 345 342
91 17 305 171 97 176 217 203 188 198 205 197 212 182 197 206 201 195 189 234 339 0 355 357 1 22 13 22 338 341 358 25 18 19 25 19 26 12 8 21 19 4 353 331
187 221 244 204 213 213 172 207 204 191 209 206 202 214 206 209 207 202 195 198 219 202 232 250 249 53 7 344 337 344 9 12 12 359 15 37 38 8 1 4 2 339 331 320
1 259 229 230 244 237 211 213 208 215 195 180 201 201 210 213 209 215 222 214 203 209 226 251 219 208 234 305 333 357 15 1 4 12 355 4 22 40 4 343 336 322 320 306
260 279 269 251 224 234 233 226 216 211 198 202 192 210 202 205 214 226 225 222 202 207 201 241 217 220 217 254 350 334 39 0 8 13 9 351 356 351 349 316 326 320 298 287
239 236 207 250 206 201 211 214 219 201 206 201 185 192 184 209 213 213 236 237 228 213 191 217 203 208 217 238 74 349 356 7 353 348 353 346 338 333 349 327 336 325 314 297
242 200 208 232 222 193 216 227 214 201 199 186 198 176 175 186 200 219 220 214 212 218 214 199 194 206 199 195 139 34 328 333 331 345 339 338 334 340 325 322 314 307 317 315
239 134 273 214 243 207 211 217 214 209 192 189 188 181 175 181 185 193 198 208 182 175 196 209 218 237 195 182 198 221 255 322 342 317 305 325 320 318 312 316 319 317 323 321
238 209 237 309 220 212 176 151 187 201 189 188 188 188 183 186 194 192 176 171 173 182 201 209 209 251 114 174 216 270 289 318 322 299 312 323 330 325 320 319 317 314 319 321
241 218 229 232 251 221 195 194 206 211 193 185 185 192 192 186 179 173 168 165 159 202 201 193 259 277 334 342 302 298 344 331 315 326 324 331 332 317 316 314 311 309 310 313
214 242 226 239 230 230 210 214 212 205 192 185 191 176 164 165 164 166 175 172 170 186 209 238 267 288 240 205 213 227 297 291 286 314 290 286 282 288 282 293 300 303 305 307
228 243 217 205 216 222 224 213 202 194 194 190 169 162 170 181 185 180 187 161 174 207 268 252 238 218 213 214 208 210 250 273 277 268 275 278 268 258 269 270 274 284 290 294
216 233 230 221 230 221 219 210 206 197 180 169 164 179 179 179 180 181 165 172 184 216 251 193 206 198 216 235 227 212 232 264 271 264 260 280 285 274 264 261 271 274 279 291
242 232 236 235 223 215 221 201 194 185 178 168 161 156 165 171 165 147 164 209 206 206 176 195 190 197 219 247 265 219 242 251 260 264 262 254 256 273 271 285 287 281 286 294
266 251 240 228 223 208 196 177 174 179 170 167 165 170 168 154 137 144 171 217 249 214 208 199 176 201 219 240 233 218 239 254 269 272 267 261 277 281 279 274 274 278 281 279
262 262 249 227 193 198 176 165 172 161 166 162 153 142 141 150 140 170 195 190 181 186 164 174 195 231 233 266 220 214 260 256 250 256 260 255 255 285 285 279 276 275 273 269
241 235 235 207 194 187 154 162 161 162 163 161 157 155 158 149 152 154 197 209 178 184 159 178 225 256 285 45 353 310 289 277 267 255 255 260 294 293 286 280 278 271 274 276
224 209 221 182 142 134 160 171 154 153 140 138 147 154 143 137 131 138 124 147 157 157 143 153 1 347 29 32 14 348 313 305 303 296 281 289 278 282 275 273 276 276 273 285
224 199 149 152 177 197 149 145 126 131 130 122 128 128 127 124 143 154 141 143 144 121 105 42 27 21 20 359 342 332 328 307 287 283 314 306 307 300 293 288 279 278 271 267
193 209 215 202 195 162 155 157 151 139 134 127 102 120 120 116 123 124 124 127 112 104 87 56 29 29 11 349 351 343 337 316 319 306 306 306 302 300 300 300 296 281 274 280
235 197 126 177 211 158 157 159 146 150 143 140 132 133 129 122 129 119 121 110 109 102 86 64 37 19 354 359 350 351 318 304 317 309 311 303 298 294 295 294 294 300 288 283